NUSAT-5 (MARYAM) (43204 NORAD) Tracking and Keplerian Element Data

This shows tracking and keplerian element data for the satellite.

Feedback or suggestion? Click here.




ElementValue
Catalog43204
NameNUSAT-5 (MARYAM)
Epoch Orbit2479
Epoch Day198.82631778
Epoch Year2018
RAAN327.1101
Inclination97.3566
Eccentricity0.0019393
Argument of Perigee47.6537
Mean Anonmoly104.7623
Mean Motion15.23299437
Decay Rate9.89E-06
L11 43204U 18015K 18198.82631778 .00000989 00000-0 44475-4 0 9991
L22 43204 97.3566 327.1101 0019393 47.6537 104.7623 15.23299437 24793

Live tracking and technical data element details for NUSAT-5 (MARYAM) (NORAD 43204). NUSAT-5 (MARYAM) can be tracked NOW for your location showing map with azimuth and elevation plus other details from your city location.

Track the satellite on the map from your city or location and see movement details for azimuth, elevation, latitude, longitude, range, height, and movement on the map or in text.







IsCatalogInMostPopularTable: catalog: 43204, numindb: 70
Update: records affected: 1



GetName: 43204 NUSAT-5 (MARYAM)

Hit Count: updated at: Wed, 18 Jul 2018 20:21:40 GMT